Regional Weather Roundup
Issued by NWS Goodland, KS

Home | Current Version | Previous Version | Text Only | Print | Product List | Glossary Off
Versions: 1 2 3 4 5 6 7 8 9 10 11 12 13 14 15 16 17 18 19 20 21 22 23 24 25 26 27 28 29 30 31 32 33 34 35 36 37 38 39 40 41 42 43 44 45 46 47 48 49 50

000
ASUS43 KGLD 210859
RWRGLD

GOODLAND FORECAST AREA HOURLY WEATHER ROUNDUP
NATIONAL WEATHER SERVICE GOODLAND KS
200 AM MST SUN DEC 21 2014

...OFFICIAL OBSERVATIONS...

CITY           SKY/WX    TMP DP  RH WIND       PRES   REMARKS
GOODLAND KS    CLOUDY    32  28  85 W3        29.87F
HILL CITY KS   PTCLDY    31  29  92 SW3       29.93F FOG
IMPERIAL NEB   CLOUDY    35  26  69 W7        29.86F
MCCOOK NEB     CLOUDY    30  26  85 SW8       29.88F
AKRON CO       PTCLDY    26  21  81 W15       29.84F WCI  14
BURLINGTON CO  PTCLDY    30  26  85 SW7       29.86F
LIMON CO       CLEAR     26  20  77 NW6       29.87S
$$

...UNOFFICIAL OBSERVATIONS...

CITY           SKY/WX    TMP DP  RH WIND       PRES   REMARKS
COLBY KS       CLEAR     28  28 100 SW6       29.90S
GOVE KS          N/A     27  32 100 MISG        N/A
NORTON KS      PTCLDY    30  28  93 SW6       29.89F
TRIBUNE KS     MOCLDY    28  28 100 W5        29.90S
KIT CARSON CO    N/A     30  26  86 MISG        N/A
YUMA CO          N/A     29  24  80 CALM        N/A
$$


USA.gov is the U.S. government's official web portal to all federal, state and local government web resources and services.